Ana Sayfa
METAR-TAF:

METAR-TAF

Havaalanları :

Show Low, Arizona, Amerika Birleşik Devletleri

Enlem: 34-16N, Boylam: 110-00W, yükseklik: 1954 m

Güncel hava durumu gözlemi

Rapor saat 10:15 UTC de 10 dakika önce yapıldı.
Rüzgar güneydan 9 kt
Sıcaklık 20°C
Nem 40%
Basınç 1026 hPa
Görüş mesafesi: 16.1 km
Açık gökyüzü

METAR: KSOW 041015Z AUTO 18009KT 10SM CLR 20/06 A3031 RMK AO2

Saat: 03:25 (10:25 UTC)


TAF: eksik

4.000'den fazla havaalanı için hava durumu gözlemleri ve tahminleri (METAR ve TAF raporları).

Kullanılabilir istasyonlar harita üzerinde sarı ve kırmızı noktalarla gösterilir.

İstasyonun adını görmek için fareyi noktanın üzerinde gezdirin.

Sonrasında hava gözlem ve tahminlerini görmek için tıklayın.

Haritayı değiştirmek için: yaklaştırmak için siyah artı işaretli yeşil düğmeye ve uzaklaştırmak için de eksi işaretli düğmeye hızla tıklayın; bitişik haritalar için yeşil okları kullanın.


METAR-TAF: